{"data":{"norad_id":60107,"intl_designator":"2024-117S","name":"STARLINK-32035","alt_names":[],"object_type":"PAYLOAD","status":"ACTIVE","operator":null,"country":"US","launch_date":"2024-06-23","launch_site_code":"AFETR","launch_vehicle":null,"mission":null,"orbit_class":"UNKNOWN","rcs_meters":null,"size_class":null,"mass_kg":null,"dimensions":null,"purposes":["comms"],"wikipedia_slug":null,"has_3d_model":false,"image_url":null,"decayed_at":null,"tle_current":{"epoch":"2026-09-21T05:57:34.921440Z","epoch_age_seconds":112697,"freshness":"FRESH","line1":"1 60107U 24117S   26264.24832085  .00000238  00000+0  18181-4 0  9996","line2":"2 60107  53.1583 206.2015 0001385  86.4977 273.6184 15.34392096126861","mean_motion":15.34392096,"eccentricity":0.0001385,"inclination_deg":53.1583,"raan_deg":206.2015,"arg_perigee_deg":86.4977,"mean_anomaly_deg":273.6184,"bstar":1.8181e-5,"rev_number":12686,"period_min":93.848241512318,"perigee_km":461.77927303467,"apogee_km":463.67419228862,"semimajor_km":6840.8637326616,"source":"CELESTRAK","updated_at":"2026-09-22T09:00:49.152925Z"}}}